Wind_Speed
8 8 8 8 7 6 6 5 4 5 6 7 8 8 10 10 11 10 10 10 11 11 11 10 10 10 9 9 9 8 9 9 9 8 8 8 8 8 9 9 9 9 8 7
9 8 7 7 6 5 3 2 3 4 5 6 7 9 9 9 10 9 10 10 11 11 10 10 9 9 9 9 9 9 9 9 9 8 8 7 8 9 9 10 10 9 9 8
10 8 7 6 4 3 2 0 2 4 4 5 5 6 8 8 8 8 9 9 10 10 10 10 9 9 9 8 8 8 8 8 8 8 8 8 8 9 10 10 10 10 9 8
11 10 8 8 5 3 2 2 2 1 2 2 5 6 7 8 7 8 8 8 8 8 9 8 8 8 8 8 7 7 7 7 7 8 8 8 9 9 10 10 10 9 9 9
11 11 9 8 7 5 3 3 4 3 3 3 5 7 8 9 6 7 8 7 7 8 8 8 8 8 7 7 7 7 7 6 7 7 8 8 9 9 10 10 10 9 9 9
12 11 10 9 9 8 6 5 5 5 5 4 5 7 7 7 7 6 6 6 7 8 8 7 7 7 7 7 7 7 7 6 7 7 8 8 9 9 9 9 10 10 10 9
13 12 11 11 10 10 8 7 8 7 6 5 6 7 6 6 6 6 6 5 6 7 8 8 7 7 7 8 8 7 7 7 7 7 8 9 9 9 9 10 10 10 10 10
14 14 12 11 11 10 10 10 10 8 7 7 8 9 7 5 5 5 6 6 6 6 7 7 8 8 8 8 8 8 9 8 8 8 8 8 9 10 10 10 10 10 10 11
15 15 14 14 13 12 11 11 12 12 10 10 10 11 11 8 6 7 7 7 7 7 8 8 8 9 9 9 9 10 11 11 10 9 9 9 9 10 11 11 12 12 11 12
16 16 16 15 15 15 14 13 13 13 13 13 13 13 11 9 8 9 9 9 9 10 10 10 10 10 10 10 10 11 12 12 12 10 9 10 10 12 12 12 13 13 13 13
18 18 18 17 17 17 16 14 14 16 17 15 15 14 11 11 11 11 11 11 11 12 12 12 12 12 12 12 12 12 13 13 13 12 12 12 13 13 14 14 14 15 15 15
20 20 20 19 19 20 19 17 16 18 18 17 17 16 15 14 12 12 12 12 12 13 13 13 13 13 13 13 13 13 14 15 15 14 13 14 15 15 15 16 16 16 15 16
21 21 21 20 21 22 21 20 20 20 20 20 19 18 16 15 14 14 14 14 14 14 14 14 14 15 15 15 15 15 16 16 16 15 15 16 17 17 18 18 18 18 18 18
25 25 24 23 22 22 23 23 22 22 23 22 21 20 19 18 16 15 15 14 15 15 15 15 16 16 16 16 17 17 18 18 19 18 18 20 20 20 20 20 20 20 20 20
28 28 26 25 24 24 24 24 23 24 23 24 23 22 20 20 18 18 18 18 18 18 17 17 17 18 19 19 20 20 20 21 21 21 22 22 23 23 22 22 22 22 22 23
29 29 28 28 27 27 26 25 25 25 26 27 25 24 23 22 22 21 20 19 20 20 20 20 20 21 21 22 23 23 22 22 23 24 25 25 25 25 24 24 24 24 25 25
30 30 30 29 29 28 28 26 27 27 27 27 28 26 25 24 23 23 22 21 22 23 22 23 23 23 23 24 23 23 24 25 26 26 27 27 27 26 26 26 26 26 27 27
31 30 30 30 29 31 28 27 28 29 29 28 28 29 28 26 25 26 26 26 25 25 27 26 26 26 26 26 26 26 26 26 27 28 28 28 28 28 27 27 28 28 28 29
32 31 32 32 32 31 29 27 27 29 29 28 28 28 28 28 28 27 28 28 28 28 29 28 27 27 27 27 28 27 27 27 28 30 30 29 29 29 29 29 29 29 30 30
33 33 33 33 34 33 30 29 28 29 29 28 28 29 28 28 29 29 29 30 30 31 30 30 30 29 29 29 30 29 30 30 30 31 31 31 31 31 31 31 31 31 31 31
34 34 34 33 34 35 32 30 30 31 30 29 28 28 29 29 30 30 30 31 31 31 31 32 32 32 32 32 32 31 31 31 32 32 32 32 32 32 32 32 33 33 33 33
34 34 34 34 35 34 32 32 32 32 32 30 29 30 30 31 31 32 31 31 30 31 32 32 33 33 34 34 34 34 34 33 34 34 34 34 34 34 34 34 34 35 34 34
33 34 34 34 34 33 32 32 32 32 33 33 33 32 32 33 33 34 33 33 32 32 33 33 33 34 35 35 35 35 35 36 36 35 35 35 36 35 35 35 35 35 35 35
33 33 34 34 33 32 32 32 32 33 34 34 34 34 33 33 34 33 33 34 33 34 34 35 35 35 35 36 36 37 37 37 37 37 36 36 36 36 36 36 36 36 36 37
33 33 33 34 34 33 33 33 33 34 34 35 35 35 35 35 35 35 34 34 34 34 34 35 36 37 37 37 37 37 38 38 38 38 38 38 37 37 37 36 36 36 37 37
31 32 33 33 33 33 33 34 34 35 35 35 36 36 36 35 36 36 36 35 36 36 36 36 37 38 38 38 38 37 38 38 38 38 38 37 37 37 37 36 36 36 37 37
Wind_Direction
160 147 136 137 127 108 95 77 47 35 21 11 18 22 25 31 32 30 33 37 33 30 34 40 43 42 42 44 42 37 34 32 33 36 35 30 25 20 15 10 8 5 2 358
170 156 148 146 137 123 103 54 30 7 353 348 3 12 17 23 25 24 29 35 34 29 31 38 38 41 40 41 40 34 29 26 24 27 27 24 19 15 10 4 2 0 357 359
177 175 171 172 161 153 165 301 351 345 351 353 349 359 4 3 8 12 21 28 33 29 26 29 38 35 33 36 35 28 21 20 21 20 22 20 14 9 5 2 360 0 5 5
191 187 184 177 172 197 194 209 219 275 323 333 331 331 352 356 8 10 9 13 24 25 24 27 25 26 27 29 27 21 18 22 20 17 13 11 8 2 359 358 359 2 4 1
192 191 191 184 184 202 195 208 222 248 271 283 321 328 347 355 358 3 1 4 9 9 12 17 18 18 16 15 14 13 12 13 11 11 6 359 354 354 356 359 2 0 357 354
198 199 201 199 201 211 204 222 233 241 251 279 307 316 326 338 337 340 341 353 357 358 358 3 4 3 2 359 357 2 359 4 3 2 357 353 351 352 357 357 354 351 350 348
206 205 206 210 215 219 219 232 243 242 245 273 290 299 310 318 321 322 321 338 348 353 355 351 346 345 347 345 345 346 344 345 347 346 346 345 345 348 349 348 345 346 346 346
217 210 208 213 221 228 232 240 251 260 258 262 274 280 286 290 306 317 313 316 335 337 339 337 332 332 331 331 334 336 332 334 333 334 337 340 343 342 339 337 337 338 339 339
226 220 215 219 221 227 231 239 253 262 260 262 269 271 273 268 295 318 315 306 317 321 322 320 319 322 322 322 322 325 327 329 328 324 327 333 331 331 329 330 330 330 330 329
231 229 221 221 224 229 237 247 250 252 259 262 267 277 276 277 290 303 311 307 308 311 309 307 307 310 314 315 315 314 317 318 317 315 317 319 320 319 321 322 322 322 320 319
233 233 228 228 230 232 238 244 251 251 255 264 270 270 269 276 285 293 300 298 299 300 300 299 301 303 305 309 311 311 311 313 313 312 313 314 315 315 316 313 312 311 313 315
237 240 235 232 232 234 239 244 250 254 252 258 267 270 266 267 274 282 289 291 295 298 300 301 300 301 302 304 306 308 309 308 306 304 306 310 312 312 310 308 307 308 309 309
240 244 242 236 233 234 236 242 248 254 255 258 262 266 265 264 268 273 278 285 289 293 297 300 301 300 299 300 301 303 304 303 303 303 302 306 308 309 307 305 307 308 308 308
241 243 243 241 239 239 238 242 246 253 256 258 260 263 263 267 268 266 270 278 284 287 292 297 298 298 295 296 297 297 299 301 302 302 302 304 306 306 303 300 301 304 305 307
242 243 245 244 245 244 244 245 247 249 255 260 263 261 262 267 268 268 267 272 278 282 289 293 293 293 294 294 294 292 294 295 296 298 299 300 300 301 299 297 298 300 301 303
243 245 247 248 246 246 246 247 251 253 254 257 258 260 260 264 265 266 267 271 275 281 287 288 288 289 289 288 290 290 290 291 292 294 296 298 299 298 297 295 295 296 298 299
244 246 248 249 249 250 251 250 251 255 257 259 257 259 261 262 264 267 268 270 274 276 281 285 285 286 287 286 288 287 288 290 291 292 294 295 295 295 295 295 294 295 296 298
249 249 250 250 251 252 253 251 252 254 256 257 258 257 261 264 263 265 267 269 272 277 280 281 283 282 284 284 285 286 288 289 291 292 293 293 293 293 293 293 294 296 296 296
248 250 252 253 253 254 253 254 255 257 258 258 259 257 257 261 262 266 269 267 271 275 277 278 279 282 284 285 286 287 288 289 290 292 292 291 291 291 292 292 293 294 295 295
248 250 252 253 253 253 254 256 257 259 259 259 261 261 261 262 263 266 269 272 273 275 275 278 280 283 284 285 285 286 288 289 290 291 291 290 290 290 290 292 293 294 294 295
248 249 251 253 254 255 256 257 258 259 260 261 261 261 263 264 266 268 269 271 273 274 275 277 279 281 283 285 285 286 288 288 289 290 290 289 290 290 292 293 292 292 294 294
248 249 250 253 255 256 257 258 257 259 261 261 260 262 263 265 268 270 272 274 276 275 275 278 280 282 283 284 285 286 287 288 288 289 289 289 288 289 290 291 292 292 293 293
249 249 251 253 255 257 256 257 257 258 260 261 262 262 264 266 269 272 273 274 276 277 277 277 279 281 282 284 285 285 286 287 287 286 287 288 288 288 289 290 291 291 292 293
251 252 253 254 255 256 256 256 257 258 260 262 261 264 266 267 269 271 272 273 274 276 277 278 279 280 282 284 284 283 284 285 285 286 286 287 288 288 288 289 290 291 291 291
250 254 255 255 256 256 257 256 257 259 260 261 262 265 266 268 268 269 271 273 275 277 277 278 279 281 282 282 283 284 284 284 284 285 285 286 286 287 288 288 289 290 291 292
251 252 253 255 257 258 258 258 260 260 261 261 263 264 264 265 266 267 270 274 276 277 278 279 281 281 282 282 283 285 285 285 284 284 284 284 285 285 286 287 288 289 290 291
Height
5930 5932 5932 5932 5933 5933 5932 5932 5932 5932 5932 5932 5930 5929 5929 5927 5926 5925 5924 5923 5922 5920 5919 5917 5916 5914 5913 5913 5912 5911 5910 5909 5908 5907 5906 5905 5904 5902 5901 5900 5898 5896 5894 5893
5930 5931 5932 5932 5933 5933 5933 5933 5933 5933 5932 5932 5931 5930 5929 5928 5927 5926 5925 5924 5922 5921 5919 5918 5917 5916 5914 5913 5913 5912 5911 5910 5909 5908 5907 5906 5904 5902 5901 5899 5897 5895 5893 5892
5929 5931 5931 5931 5932 5932 5933 5933 5933 5933 5932 5932 5931 5930 5929 5927 5926 5926 5925 5924 5923 5922 5920 5919 5918 5917 5916 5914 5913 5913 5912 5911 5909 5908 5907 5906 5904 5902 5901 5899 5897 5895 5893 5891
5927 5929 5930 5930 5931 5932 5932 5932 5932 5932 5932 5932 5932 5930 5929 5927 5926 5926 5925 5924 5923 5922 5921 5920 5919 5918 5916 5915 5914 5913 5912 5911 5910 5908 5907 5906 5904 5902 5901 5898 5896 5894 5892 5890
5926 5927 5928 5929 5930 5931 5931 5931 5931 5931 5931 5931 5930 5929 5929 5926 5926 5925 5924 5923 5923 5922 5921 5920 5919 5918 5917 5916 5914 5913 5911 5911 5909 5908 5907 5905 5904 5902 5900 5897 5895 5893 5891 5889
5924 5925 5926 5927 5928 5929 5929 5930 5930 5930 5930 5930 5929 5928 5927 5925 5925 5924 5923 5923 5922 5921 5920 5919 5919 5918 5917 5916 5914 5913 5911 5910 5909 5907 5906 5905 5903 5901 5899 5897 5894 5892 5890 5888
5922 5923 5924 5925 5927 5927 5928 5929 5929 5929 5928 5928 5928 5926 5926 5924 5923 5922 5922 5922 5921 5920 5920 5919 5918 5917 5916 5915 5913 5912 5911 5909 5908 5906 5905 5903 5902 5900 5898 5896 5894 5891 5889 5887
5918 5921 5922 5923 5924 5925 5926 5926 5927 5927 5926 5926 5925 5924 5924 5923 5921 5920 5920 5920 5919 5919 5918 5918 5917 5916 5915 5914 5913 5912 5910 5908 5906 5905 5903 5902 5900 5898 5897 5894 5893 5890 5888 5886
5915 5918 5919 5920 5921 5922 5923 5923 5924 5924 5923 5923 5922 5921 5921 5920 5919 5918 5917 5918 5917 5917 5916 5916 5915 5915 5914 5913 5911 5910 5908 5907 5905 5904 5901 5899 5898 5897 5895 5893 5891 5889 5886 5884
5911 5913 5916 5917 5918 5919 5920 5920 5921 5921 5920 5919 5919 5918 5918 5917 5916 5916 5915 5915 5914 5914 5914 5914 5913 5913 5912 5911 5910 5908 5907 5905 5903 5902 5900 5898 5896 5894 5892 5890 5888 5886 5884 5882
5907 5909 5912 5913 5914 5915 5916 5917 5917 5916 5916 5916 5915 5917 5915 5915 5914 5914 5913 5913 5912 5911 5911 5911 5911 5910 5909 5908 5907 5906 5904 5902 5900 5898 5897 5895 5893 5891 5890 5888 5885 5883 5881 5879
5902 5904 5906 5909 5910 5911 5912 5912 5913 5913 5913 5912 5912 5914 5911 5911 5911 5911 5910 5910 5909 5909 5908 5908 5908 5907 5906 5905 5904 5903 5901 5899 5897 5895 5893 5892 5890 5889 5887 5884 5882 5879 5877 5875
5897 5899 5901 5904 5907 5907 5907 5908 5909 5909 5909 5908 5908 5910 5908 5907 5907 5907 5906 5906 5906 5905 5905 5904 5904 5903 5902 5901 5900 5899 5897 5895 5893 5891 5889 5888 5887 5885 5883 5881 5878 5875 5873 5871
5892 5894 5896 5899 5900 5901 5902 5903 5904 5904 5904 5903 5903 5904 5904 5903 5903 5903 5903 5902 5902 5902 5902 5901 5900 5900 5898 5897 5896 5894 5893 5891 5889 5887 5886 5884 5883 5881 5879 5876 5874 5871 5869 5866
5886 5887 5889 5892 5894 5895 5896 5898 5898 5898 5898 5898 5898 5898 5899 5899 5899 5899 5899 5899 5898 5898 5898 5897 5896 5895 5894 5893 5892 5890 5889 5887 5885 5883 5881 5879 5877 5875 5873 5871 5868 5866 5863 5861
5878 5881 5883 5885 5887 5888 5889 5891 5892 5892 5892 5892 5892 5892 5893 5894 5894 5893 5893 5893 5893 5893 5893 5892 5891 5890 5889 5888 5886 5885 5883 5882 5880 5878 5876 5874 5871 5869 5867 5865 5862 5860 5857 5855
5872 5874 5875 5877 5879 5880 5882 5885 5885 5885 5885 5886 5886 5887 5887 5887 5887 5888 5887 5887 5888 5888 5887 5887 5886 5885 5884 5882 5880 5879 5877 5876 5874 5872 5870 5867 5865 5863 5861 5858 5856 5853 5850 5847
5865 5866 5867 5869 5872 5872 5878 5877 5877 5877 5878 5879 5879 5879 5880 5881 5881 5881 5881 5881 5882 5881 5880 5880 5879 5878 5877 5875 5874 5873 5871 5870 5868 5865 5863 5860 5857 5855 5853 5851 5848 5845 5843 5840
5857 5858 5860 5861 5862 5864 5868 5869 5870 5870 5870 5871 5871 5872 5873 5874 5874 5874 5875 5875 5875 5874 5873 5872 5871 5870 5869 5868 5867 5865 5864 5862 5860 5857 5855 5852 5850 5847 5845 5842 5840 5837 5835 5832
5848 5850 5852 5853 5854 5855 5860 5861 5861 5862 5863 5864 5864 5864 5865 5866 5866 5868 5868 5868 5868 5867 5866 5864 5863 5862 5861 5860 5858 5857 5855 5854 5851 5849 5846 5844 5841 5838 5835 5833 5831 5828 5826 5823
5840 5841 5843 5844 5845 5847 5851 5852 5853 5855 5856 5856 5856 5857 5857 5858 5859 5860 5859 5859 5859 5858 5858 5856 5854 5853 5852 5851 5850 5848 5846 5844 5842 5840 5837 5835 5832 5829 5826 5824 5821 5819 5817 5814
5831 5832 5834 5835 5837 5840 5842 5843 5845 5845 5846 5847 5847 5848 5849 5849 5850 5850 5851 5850 5850 5850 5849 5847 5846 5845 5843 5842 5840 5838 5836 5835 5833 5830 5828 5825 5823 5820 5817 5815 5812 5809 5807 5804
5821 5824 5825 5827 5830 5831 5832 5833 5834 5835 5836 5837 5838 5839 5840 5840 5841 5841 5841 5841 5840 5840 5839 5838 5837 5835 5833 5832 5830 5828 5827 5824 5822 5820 5817 5815 5813 5810 5808 5805 5803 5800 5797 5794
5812 5814 5815 5817 5819 5821 5823 5824 5824 5826 5827 5828 5829 5829 5830 5830 5831 5831 5831 5831 5830 5830 5829 5828 5827 5825 5824 5822 5820 5818 5816 5813 5811 5809 5807 5805 5802 5800 5797 5795 5792 5790 5787 5784
5805 5805 5806 5808 5810 5812 5813 5814 5815 5816 5817 5818 5819 5820 5820 5820 5821 5821 5821 5821 5820 5820 5819 5818 5816 5815 5813 5811 5809 5807 5804 5802 5800 5797 5795 5793 5791 5789 5787 5785 5782 5780 5777 5774
5796 5797 5797 5799 5801 5802 5804 5805 5806 5806 5807 5808 5809 5810 5810 5810 5810 5811 5811 5811 5810 5810 5808 5807 5805 5804 5802 5800 5798 5795 5793 5790 5787 5785 5783 5781 5779 5777 5775 5774 5772 5769 5766 5764